Location: Newark
(46.7636°N, 1.8358°W)
Time: 07:07:50
(UTC+00:00)

Altair - Visible Passes

Search period start: 16 October 2019 00:00
Search period end: 26 October 2019 00:00
Orbit: 1501 x 1683 km, 47.2° (Epoch: 15 October)

Date Brightness Start Highest point End Pass type
(mag) Time Alt. Az. Time Alt. Az. Time Alt. Az.
16 Oct 8.4 18:16:48 10° WNW 18:26:20 50° SW 18:35:57 10° SE visible
16 Oct 9.6 20:23:40 10° W 20:29:20 17° SW 20:35:01 10° SSW visible
17 Oct 8.4 17:51:35 10° WNW 18:01:12 53° SW 18:10:55 10° SE visible
17 Oct 9.6 19:58:03 10° W 20:04:19 19° SW 20:10:35 10° SSW visible
18 Oct 9.5 19:32:32 10° W 19:39:16 21° SW 19:46:04 10° S visible
19 Oct 9.5 19:07:04 10° W 19:14:14 23° SW 19:21:27 10° S visible
20 Oct 9.5 18:41:39 10° W 18:49:11 25° SW 18:56:46 10° S visible
21 Oct 9.5 18:16:17 10° W 18:24:08 27° SW 18:32:03 10° S visible
22 Oct 9.5 17:50:57 10° WNW 17:59:03 29° SW 18:07:17 10° S visible
23 Oct 9.5 17:25:38 10° WNW 17:33:59 31° SW 17:42:27 10° SSE visible
